Retour au catalogue

DELTA 1 DEB

ActifPO
NORAD 19105·DEBRIS·🇺🇸 United States

Lancé Jan 22, 1975 depuis Vandenberg Space Force Base

Loading…

Prochains Passages (prochaines 24 heures)

TLE

FraisSource: Space-Track

Époque: Sep 13, 2026, 19:01 UTC

1 19105U 75004HN  26256.79304598  .00000354  00000-0  87175-4 0  9992
2 19105  98.7512 193.5143 0059274 256.9736 132.2877 14.57911957196006

Suivez DELTA 1 DEB en temps réel avec AllMySat

Download on the App Store